Regional Weather Roundup
Issued by NWS Cleveland, OH

Home | Current Version | Previous Version | Graphics & Text | Print | Product List | Glossary On
Versions: 1 2 3 4 5 6 7 8 9 10 11 12 13 14 15 16 17 18 19 20 21 22 23 24 25 26 27 28 29 30 31 32 33 34 35 36 37 38 39 40 41 42 43 44 45 46 47 48 49 50
000
ASUS41 KCLE 022310
RWRCLE
OHIO REGIONAL WEATHER ROUNDUP
NATIONAL WEATHER SERVICE WILMINGTON, OH
700 PM EDT TUE JUN 02 2015

NOTE: "FAIR" INDICATES FEW OR NO CLOUDS BELOW 12,000 FEET WITH NO
SIGNIFICANT WEATHER AND/OR OBSTRUCTIONS TO VISIBILITY.

OHZ001>008-015>018-024>027-034-035-043-044-030000-
   NORTHWEST OHIO

CITY           SKY/WX    TMP DP  RH WIND       PRES   REMARKS
DEFIANCE       SUNNY     67  47  48 E9        30.12S
FINDLAY        SUNNY     67  49  52 NE13      30.09S
TOLEDO EXPRESS SUNNY     65  43  44 E10       30.12F
TOLEDO EXEC    SUNNY     64  45  49 E12       30.13F
LIMA           MOSUNNY   66  52  60 NE9       30.09F
$$

OHZ009>014-019>023-028>033-038-089-030000-
   NORTHEAST OHIO

CITY           SKY/WX    TMP DP  RH WIND       PRES   REMARKS
CLE-HOPKINS    MOSUNNY   63  50  62 N15       30.12S
CLE-LAKEFRONT  MOSUNNY   60  52  74 NE18G26   30.10R
CUY CO. ARPT   MOSUNNY   66 N/A N/A NE14      30.11S
LORAIN-ELYRIA  SUNNY     62  51  67 NE13      30.11S
ASHTABULA      SUNNY     63  49  60 VRB6      30.13S
AKRON-CANTON   MOSUNNY   65  52  62 SE8       30.10S
WOOSTER        SUNNY     65  54  67 SE8       30.10S
MANSFIELD      PTSUNNY   68  55  63 N10       30.09R
YOUNGSTOWN     PTSUNNY   69  50  50 E9        30.10R
$$

OHZ042-051>053-060>062-070>072-077>081-030000-
  SOUTHWEST OHIO

CITY           SKY/WX    TMP DP  RH WIND       PRES   REMARKS
CINC-COVINGTON CLOUDY    61  52  72 N7        30.08F
CINC-LUNKEN    CLOUDY    62  53  72 NE8       30.08F
HAMILTON       CLOUDY    62  52  69 VRB3      30.09F
DAYTON         PTSUNNY   65  54  67 E7        30.09S
WRIGHT-PAT AFB PTSUNNY   65  53  65 CALM      30.08S
DAYTON GENERAL CLOUDY    63  53  70 NE8       30.08F
WILMINGTON     MOSUNNY   62  51  67 VRB6      30.07F
$$

OHZ036-037-039>041-045>050-054>059-063>069-073>076-082>088-030000-
  CENTRAL AND SOUTHEAST OHIO

CITY           SKY/WX    TMP DP  RH WIND       PRES   REMARKS
COLUMBUS       PTSUNNY   64  53  67 E9        30.08S
OSU AIRPORT    MOSUNNY   66  53  63 E8        30.07F
BOLTON FIELD   PTSUNNY   64  54  68 E7        30.08F
RICKENBACK AFB CLOUDY    62  53  71 E9        30.08S
NEWARK         CLOUDY    62  52  69 E8        30.09S
MARION         CLOUDY    68  54  60 NE12      30.08S
LANCASTER      CLOUDY    61  53  75 E7        30.10R
ZANESVILLE     CLOUDY    61  51  70 NE6       30.10S
NEW PHILLY     CLOUDY    65  53  65 E6        30.11S
$$


USA.gov is the U.S. government's official web portal to all federal, state and local government web resources and services.